Location: ?????
(37.7324°N, 23.9257°E)
Time: 08:14:29
(UTC+00:00)

USA 81 - Pass Details

Date: 29 November 2020
Orbit: 783 x 791 km, 85.0° (Epoch: 30 November)

Event Time Altitude Azimuth Distance (km) Brightness Sun altitude
Rises 04:33:39 0° 175° (S) 3,255 7.6 -9.1°
Reaches altitude 10° 04:36:00 10° 173° (S) 2,330 6.9 -8.6°
Maximum altitude 04:41:11 68° 91° (E) 840 4.5 -7.7°
Drops below altitude 10° 04:46:24 10° 9° (N) 2,346 6.4 -6.7°
Sets 04:48:47 0° 7° (N) 3,279 7.1 -6.3°
